www.pogodaiklimat.ru

Погода и климат >> Архив погоды >> Индия >> Harnai


ПОГОДА в Harnai

  • Прогноз погоды в Harnai
  • Монитор погоды в Harnai
  • Климат города

АРХИВ ПОГОДЫ в Harnai

Время (UTC), дата Ветер
(напр.,м/с)
 
Видим.   Явления Облачность Т
(С)
Тd
(С)
f
(%)
Тe
(С)
Тes
(С)
Комфортность P
(гПа)
Po
(гПа)
Тmin
(С)
Tmax
(С)
R
(мм)
R24
(мм)
S
(см)
03 16.09 С 1 4000 м мгла {туман} 9/4 600 м
[Sc diur, vesp Ac und]
+27.6 0.0 17 +25 +27 комфорт 1012.6 1013.0 +26.0
06 16.09 С 2 4000 м мгла {туман} 9/4 600 м
[Cb calv Ac und]
+30.1 0.0 14 +27 +32 жарко 1012.2 1012.0
09 16.09 С 2 10 км 5/3 600 м
[Cb calv Ci fib]
+29.7 -20.1 3 +25 +36 комфорт 1009.3 1009.0
12 16.09 С 3 10 км 4/4 600 м
[Sc diur, vesp]
+28.6 -20.1 3 +24 +25 комфорт 1008.8 1009.0 +31.2
03 17.09 СВ 2 10 км 3/0 2000 м
[Ci sp]
+27.7 0.0 16 +25 +30 комфорт 1011.5 1012.0 +25.4
06 17.09 З 1 10 км 4/3 600 м
[Sc diur, vesp Ac lent]
+30.7 0.0 14 +28 +41 жарко 1011.4 1011.0
12 17.09 СВ 2 10 км 1/1 600 м
[Sc diur, vesp]
+28.2 -20.1 3 +24 +25 комфорт 1008.9 1009.0 +31.3
03 18.09 С 2 10 км 1/0 1000 м
[Ac lent]
+28.1 0.0 16 +26 +30 жарко 1012.0 1012.0 +24.5
06 18.09 С 2 10 км 3/3 600 м
[Sc diur, vesp]
+29.3 0.0 15 +27 +41 жарко 1011.8 1012.0
09 18.09 СВ 2 10 км 3/3 600 м
[Sc diur, vesp]
+29.6 0.0 15 +27 +39 жарко 1009.8 1010.0
12 18.09 С 1 10 км 3/3 600 м
[Sc diur, vesp]
+28.8 -20.1 3 +24 +26 комфорт 1009.5 1010.0 +31.5
03 19.09 штиль 0 4000 м мгла {туман} 9/6 600 м
[Sc diur, vesp Ac lent]
+27.0 -20.1 3 +23 +24 комфорт 1013.0 1013.0 +25.6
06 19.09 С 2 4000 м мгла {туман} 9/5 600 м
[Sc diur, vesp Ac lent]
+28.2 0.0 16 +26 +29 жарко 1012.4 1012.0
09 19.09 С 2 4000 м мгла {туман} 9/5 600 м
[Sc Ac lent]
+28.6 0.0 16 +26 +29 жарко 1009.4 1009.0
12 19.09 С 3 4000 м мгла {туман} 5/1 600 м
[Sc diur, vesp Ac lent]
+27.6 -20.1 3 +23 +24 комфорт 1008.6 1009.0 +30.0
03 20.09 СВ 1 4000 м мгла {туман} 10/6 600 м
[Cu Sc Ac As]
+26.8 -20.1 4 +23 +23 комфорт 1010.0 1010.0 +24.7
06 20.09 С 2 4000 м мгла {туман} 10/5 600 м
[Cu Sc Ac As]
+28.1 -20.1 3 +24 +27 комфорт 1010.0 1010.0
09 20.09 С 2 4000 м мгла {туман} 10/6 600 м
[Cu Sc Ac As]
+27.8 0.0 16 +25 +27 комфорт 1007.3 1007.0
12 20.09 С 3 4000 м {туман} 10/6 600 м
[Cu Sc Ac As]
+27.5 0.0 17 +25 +26 комфорт 1006.3 1006.0 +30.0
03 21.09 С 1 4000 м мгла {туман} 10/6 600 м
[Cu Sc Ac As]
+26.6 -20.1 4 +23 +23 комфорт 1008.1 1008.0 +25.1
06 21.09 Ю 1 4000 м мгла {туман} 10/6 600 м
[Cu Sc Ac As]
+28.4 -20.1 3 +24 +26 комфорт 1009.1 1009.0
09 21.09 Ю 1 4000 м мгла {туман} 10/5 600 м
[Cu Sc Ac As]
+29.0 0.0 15 +26 +29 жарко 1007.2 1007.0
12 21.09 ЮЗ 1 4000 м в посл. час морось {туман} 10/6 600 м
[Frnb Ac As]
+28.4 0.0 16 +26 +26 жарко 1006.7 1007.0 +29.6 0.0
03 22.09 ЮЗ 1 4000 м мгла {туман} 10/5 600 м
[Cu Sc Ac As]
+26.0 -20.1 4 +22 +23 комфорт 1010.2 1010.0 +25.4
06 22.09 Ю 2 4000 м мгла {туман} 10/5 600 м
[Cu Sc Ac As]
+27.6 -20.1 3 +23 +26 комфорт 1011.7 1012.0
09 22.09 Ю 2 4000 м мгла {туман} 10/5 600 м
[Cu Sc Ac As]
+28.0 0.0 16 +26 +28 жарко 1009.1 1009.0
12 22.09 ЮЗ 2 4000 м мгла {туман} 10/5 600 м
[Cu Sc Ac As]
+27.8 0.0 16 +25 +26 комфорт 1008.1 1008.0 +28.5

 

Местоположение метеостанции Harnai (Maharashtra, Индия): широта 17.82 долгота 73.10 высота над уровнем моря 20 м.

В архиве по умолчанию представлена погода в Harnai за последнюю неделю. Архивные данные за месяц целиком и за предыдущие месяцы, начиная с января 2011 года, Вы можете получить, выбрав интересующий диапазон дат из раскрывающегося списка и нажав кнопку "Ввод!".


*Определитесь, кто Вы:
робот инопланетянин человек

Внимание! Время в таблицах - всемирное. Для получения местного времени необходимо прибавить поправку, которая в Harnai равна 5.5 ч.

Смотрите также архив погоды в соседних городах и на ближайших метеорологических станциях:

Погода в Mahabaleshwar (Maharashtra, Индия) (62 км)
Погода в Bhira (Maharashtra, Индия) (77 км)
Погода в Alibag (Maharashtra, Индия) (93 км)
Погода в Ratnagiri (Maharashtra, Индия) (97 км)
Погода в Satara (Maharashtra, Индия) (106 км)
Погода в Pune (Maharashtra, Индия) (112 км)
Погода в Mumbai Colaba (Maharashtra, Индия) (124 км)
Погода в Matheran (Maharashtra, Индия) (130 км)
Погода в Mumbai (Maharashtra, Индия) (147 км)
Погода в Kolhapur (Maharashtra, Индия) (173 км)

Пояснения к столбцам:

Ветер - указаны скорость ветра в м/с - средняя за 10 мин, порывы в срок и между сроками (в фигурных скобках) и направление, откуда дует ветер: С - северный, СВ - северо-восточный, В - восточный, ЮВ - юго-восточный, Ю - южный, ЮЗ - юго-западный, З - западный, СЗ - северо-западный.
Видимость - горизонтальная дальность видимости в метрах или километрах. При видимости от 1 до 10 км при отсутствии осадков обычно наблюдается дымка, при ухудшении видимости до 1 км и менее - туман. В сухую погоду видимость может ухудшаться дымом, пылью или мглою.
Явления - указаны атмосферные явления, наблюдавшиеся в срок или в последний час перед сроком; фигурными скобками обозначены явления, наблюдавшиеся между сроками (за 1-3 часа до срока); квадратными скобками обозначены град или гололедные отложения с указанием их диаметра в мм.
Облачность - указаны через наклонную черту общая и нижняя облачность в баллах и высота нижней границы облаков в метрах; квадратными скобками обозначены формы облаков: Ci - перистые, Cs - перисто-слоистые, Cc - перисто-кучевые, Ac - высококучевые, As - высокослоистые, Sc - слоисто-кучевые, Ns - слоисто-дождевые, Cu - кучевые, Cb - кучево-дождевые. Подробнее классификацию облаков см. в Атласе облаков (PDF).
T - Температура воздуха - температура, измеренная на высоте 2 м над землей.
Td - Температура точки росы - температура, при понижении до которой содержащийся в воздухе водяной пар достигнет насыщения.
f - Относительная влажность воздуха - влажноcть воздуха, измеренная на высоте 2 м над землей.
Te - Эффективная температура - температура, которую ощущает одетый по сезону человек в тени. Характеристика душности погоды. При расчете учитывается влияние влажности воздуха и скорости ветра на теплоощущения человека.
Tes - Эффективная температура на солнце - температура, которую ощущает человек, с поправкой на солнечный нагрев. Характеристика знойности погоды. Зависит от высоты солнца над горизонтом, облачности и скорости ветра. Ночью, в пасмурную погоду, а также при ветре 12 м/с и более поправка равна нулю.
P - Атмосферное давление - приведенное к уровню моря атмосферное давление.
Po - Атмосферное давление - измеренное на уровне метеостанции атмосферное давление.
Tmin - Минимальная температура - минимум температуры воздуха на высоте 2 м над землей.
Tmax - Максимальная температура - максимум температуры воздуха на высоте 2 м над землей.
R - Количество осадков - Количество выпавших осадков за период времени, мм. При наведении курсора мыши на число - период времени, за который выпало указанное количество осадков.
R24 - Количество осадков - Количество выпавших осадков за 24 часа, мм.
S - Снежный покров - Высота снежного покрова, см. При наведении курсора мыши на число - состояние снежного покрова и степень покрытия местности в баллах.